Location: North Runcton
(52.7000°N, 0.4333°E)
Time: 21:05:45
(UTC+00:00)

Nadezhda 3 Rocket - Pass Details

Date: 19 May 2025
Orbit: 957 x 997 km, 82.9° (Epoch: 21 June)

Event Time Altitude Azimuth Distance (km) Brightness Sun altitude
Exits shadow 23:06:39 16° 208° (SSW) 2,281 5.5 -16.6°
Maximum altitude 23:11:36 60° 285° (WNW) 1,102 4.4 -16.7°
Drops below altitude 10° 23:17:48 10° 6° (N) 2,741 7.6 -16.9°
Sets 23:20:24 0° 10° (N) 3,699 8.4 -16.9°
